Location: Huberhof
(49.2050°N, 7.4980°E)
Time: 01:11:58
(UTC+00:00)

Cosmos 1980 Rocket - Pass Details

Date: 29 October 2020
Orbit: 831 x 848 km, 71.0° (Epoch: 26 November)

Event Time Altitude Azimuth Distance (km) Brightness Sun altitude
Rises 19:13:38 0° 217° (SW) 3,378 5.6 -29.8°
Reaches altitude 10° 19:16:05 10° 220° (SW) 2,445 4.9 -30.2°
Enters shadow 19:21:21 63° 284° (WNW) 931 2.5 -31.1°
